Year,Month,Day,Hour,Minute,Value (Times are PST for temperature in C)
2016,04,23,00,00,11.70
2016,04,23,00,01,11.70
2016,04,23,00,02,11.70
2016,04,23,00,03,11.70
2016,04,23,00,04,11.70
2016,04,23,00,05,11.70
2016,04,23,00,06,11.70
2016,04,23,00,07,11.70
2016,04,23,00,08,11.70
2016,04,23,00,09,11.70
2016,04,23,00,10,11.70
2016,04,23,00,11,11.70
2016,04,23,00,12,11.60
2016,04,23,00,13,11.60
2016,04,23,00,14,11.60
2016,04,23,00,15,11.60
2016,04,23,00,16,11.60
2016,04,23,00,17,11.60
2016,04,23,00,18,11.60
2016,04,23,00,19,11.60
2016,04,23,00,20,11.60
2016,04,23,00,21,11.60
2016,04,23,00,22,11.60
2016,04,23,00,23,11.60
2016,04,23,00,24,11.60
2016,04,23,00,25,11.60
2016,04,23,00,26,11.60
2016,04,23,00,27,11.60
2016,04,23,00,28,11.60
2016,04,23,00,29,11.60
2016,04,23,00,30,11.60
2016,04,23,00,31,11.50
2016,04,23,00,32,11.50
2016,04,23,00,33,11.50
2016,04,23,00,34,11.50
2016,04,23,00,35,11.50
2016,04,23,00,36,11.50
2016,04,23,00,37,11.50
2016,04,23,00,38,11.50
2016,04,23,00,39,11.50
2016,04,23,00,40,11.40
2016,04,23,00,41,11.40
2016,04,23,00,42,11.50
2016,04,23,00,43,11.50
2016,04,23,00,44,11.50
2016,04,23,00,45,11.50
2016,04,23,00,46,11.50
2016,04,23,00,47,11.60
2016,04,23,00,48,11.60
2016,04,23,00,49,11.60
2016,04,23,00,50,11.60
2016,04,23,00,51,11.60
2016,04,23,00,52,11.60
2016,04,23,00,53,11.60
2016,04,23,00,54,11.60
2016,04,23,00,55,11.60
2016,04,23,00,56,11.60
2016,04,23,00,57,11.60
2016,04,23,00,58,11.60
2016,04,23,00,59,11.60
2016,04,23,01,00,11.60
2016,04,23,01,01,11.60
2016,04,23,01,02,11.60
2016,04,23,01,03,11.60
2016,04,23,01,04,11.60
2016,04,23,01,05,11.60
2016,04,23,01,06,11.60
2016,04,23,01,07,11.60
2016,04,23,01,08,11.60
2016,04,23,01,09,11.60
2016,04,23,01,10,11.60
2016,04,23,01,11,11.60
2016,04,23,01,12,11.60
2016,04,23,01,13,11.60
2016,04,23,01,14,11.60
2016,04,23,01,15,11.60
2016,04,23,01,16,11.70
2016,04,23,01,17,11.70
2016,04,23,01,18,11.70
2016,04,23,01,19,11.70
2016,04,23,01,20,11.60
2016,04,23,01,21,11.70
2016,04,23,01,22,11.70
2016,04,23,01,23,11.70
2016,04,23,01,24,11.70
2016,04,23,01,25,11.70
2016,04,23,01,26,11.70
2016,04,23,01,27,11.60
2016,04,23,01,28,11.60
2016,04,23,01,29,11.70
2016,04,23,01,30,11.70
2016,04,23,01,31,11.70
2016,04,23,01,32,11.70
2016,04,23,01,33,11.70
2016,04,23,01,34,11.70
2016,04,23,01,35,11.70
2016,04,23,01,36,11.70
2016,04,23,01,37,11.70
2016,04,23,01,38,11.70
2016,04,23,01,39,11.70
2016,04,23,01,40,11.70
2016,04,23,01,41,11.70
2016,04,23,01,42,11.70
2016,04,23,01,43,11.70
2016,04,23,01,44,11.70
2016,04,23,01,45,11.70
2016,04,23,01,46,11.70
2016,04,23,01,47,11.70
2016,04,23,01,48,11.70
2016,04,23,01,49,11.70
2016,04,23,01,50,11.70
2016,04,23,01,51,11.70
2016,04,23,01,52,11.70
2016,04,23,01,53,11.70
2016,04,23,01,54,11.70
2016,04,23,01,55,11.70
2016,04,23,01,56,11.60
2016,04,23,01,57,11.60
2016,04,23,01,58,11.60
2016,04,23,01,59,11.60
2016,04,23,02,00,11.60
2016,04,23,02,01,11.60
2016,04,23,02,02,11.60
2016,04,23,02,03,11.60
2016,04,23,02,04,11.60
2016,04,23,02,05,11.60
2016,04,23,02,06,11.60
2016,04,23,02,07,11.50
2016,04,23,02,08,11.50
2016,04,23,02,09,11.50
2016,04,23,02,10,11.50
2016,04,23,02,11,11.50
2016,04,23,02,12,11.50
2016,04,23,02,13,11.50
2016,04,23,02,14,11.50
2016,04,23,02,15,11.50
2016,04,23,02,16,11.50
2016,04,23,02,17,11.50
2016,04,23,02,18,11.50
2016,04,23,02,19,11.60
2016,04,23,02,20,11.60
2016,04,23,02,21,11.60
2016,04,23,02,22,11.60
2016,04,23,02,23,11.50
2016,04,23,02,24,11.50
2016,04,23,02,25,11.50
2016,04,23,02,26,11.50
2016,04,23,02,27,11.50
2016,04,23,02,28,11.50
2016,04,23,02,29,11.50
2016,04,23,02,30,11.40
2016,04,23,02,31,11.40
2016,04,23,02,32,11.40
2016,04,23,02,33,11.40
2016,04,23,02,34,11.40
2016,04,23,02,35,11.40
2016,04,23,02,36,11.40
2016,04,23,02,37,11.40
2016,04,23,02,38,11.40
2016,04,23,02,39,11.40
2016,04,23,02,40,11.40
2016,04,23,02,41,11.40
2016,04,23,02,42,11.40
2016,04,23,02,43,11.40
2016,04,23,02,44,11.40
2016,04,23,02,45,11.30
2016,04,23,02,46,11.30
2016,04,23,02,47,11.30
2016,04,23,02,48,11.30
2016,04,23,02,49,11.30
2016,04,23,02,50,11.20
2016,04,23,02,51,11.20
2016,04,23,02,52,11.20
2016,04,23,02,53,11.20
2016,04,23,02,54,11.20
2016,04,23,02,55,11.30
2016,04,23,02,56,11.30
2016,04,23,02,57,11.40
2016,04,23,02,58,11.30
2016,04,23,02,59,11.40
2016,04,23,03,00,11.40
2016,04,23,03,01,11.40
2016,04,23,03,02,11.40
2016,04,23,03,03,11.40
2016,04,23,03,04,11.40
2016,04,23,03,05,11.40
2016,04,23,03,06,11.30
2016,04,23,03,07,11.30
2016,04,23,03,08,11.30
2016,04,23,03,09,11.30
2016,04,23,03,10,11.30
2016,04,23,03,11,11.30
2016,04,23,03,12,11.30
2016,04,23,03,13,11.30
2016,04,23,03,14,11.30
2016,04,23,03,15,11.30
2016,04,23,03,16,11.30
2016,04,23,03,17,11.30
2016,04,23,03,18,11.30
2016,04,23,03,19,11.30
2016,04,23,03,20,11.30
2016,04,23,03,21,11.30
2016,04,23,03,22,11.30
2016,04,23,03,23,11.30
2016,04,23,03,24,11.30
2016,04,23,03,25,11.30
2016,04,23,03,26,11.30
2016,04,23,03,27,11.30
2016,04,23,03,28,11.30
2016,04,23,03,29,11.40
2016,04,23,03,30,11.40
2016,04,23,03,31,11.30
2016,04,23,03,32,11.30
2016,04,23,03,33,11.30
2016,04,23,03,34,11.30
2016,04,23,03,35,11.40
2016,04,23,03,36,11.40
2016,04,23,03,37,11.40
2016,04,23,03,38,11.50
2016,04,23,03,39,11.50
2016,04,23,03,40,11.50
2016,04,23,03,41,11.50
2016,04,23,03,42,11.50
2016,04,23,03,43,11.50
2016,04,23,03,44,11.60
2016,04,23,03,45,11.60
2016,04,23,03,46,11.70
2016,04,23,03,47,11.70
2016,04,23,03,48,11.70
2016,04,23,03,49,11.70
2016,04,23,03,50,11.70
2016,04,23,03,51,11.70
2016,04,23,03,52,11.70
2016,04,23,03,53,11.70
2016,04,23,03,54,11.70
2016,04,23,03,55,11.60
2016,04,23,03,56,11.60
2016,04,23,03,57,11.60
2016,04,23,03,58,11.60
2016,04,23,03,59,11.60
2016,04,23,04,00,11.60
2016,04,23,04,01,11.60
2016,04,23,04,02,11.60
2016,04,23,04,03,11.60
2016,04,23,04,04,11.60
2016,04,23,04,05,11.60
2016,04,23,04,06,11.60
2016,04,23,04,07,11.60
2016,04,23,04,08,11.60
2016,04,23,04,09,11.60
2016,04,23,04,10,11.60
2016,04,23,04,11,11.50
2016,04,23,04,12,11.50
2016,04,23,04,13,11.50
2016,04,23,04,14,11.50
2016,04,23,04,15,11.50
2016,04,23,04,16,11.50
2016,04,23,04,17,11.40
2016,04,23,04,18,11.40
2016,04,23,04,19,11.40
2016,04,23,04,20,11.40
2016,04,23,04,21,11.40
2016,04,23,04,22,11.40
2016,04,23,04,23,11.40
2016,04,23,04,24,11.40
2016,04,23,04,25,11.30
2016,04,23,04,26,11.30
2016,04,23,04,27,11.30
2016,04,23,04,28,11.30
2016,04,23,04,29,11.30
2016,04,23,04,30,11.30
2016,04,23,04,31,11.30
2016,04,23,04,32,11.30
2016,04,23,04,33,11.30
2016,04,23,04,34,11.20
2016,04,23,04,35,11.20
2016,04,23,04,36,11.20
2016,04,23,04,37,11.20
2016,04,23,04,38,11.20
2016,04,23,04,39,11.20
2016,04,23,04,40,11.20
2016,04,23,04,41,11.20
2016,04,23,04,42,11.20
2016,04,23,04,43,11.20
2016,04,23,04,44,11.20
2016,04,23,04,45,11.10
2016,04,23,04,46,11.10
2016,04,23,04,47,11.10
2016,04,23,04,48,11.10
2016,04,23,04,49,11.10
2016,04,23,04,50,11.10
2016,04,23,04,51,11.10
2016,04,23,04,52,11.10
2016,04,23,04,53,11.10
2016,04,23,04,54,11.10
2016,04,23,04,55,11.10
2016,04,23,04,56,11.10
2016,04,23,04,57,11.10
2016,04,23,04,58,11.10
2016,04,23,04,59,11.00
2016,04,23,05,00,11.00
2016,04,23,05,01,11.00
2016,04,23,05,02,10.90
2016,04,23,05,03,10.90
2016,04,23,05,04,10.90
2016,04,23,05,05,10.90
2016,04,23,05,06,10.90
2016,04,23,05,07,10.90
2016,04,23,05,08,10.90
2016,04,23,05,09,10.90
2016,04,23,05,10,10.80
2016,04,23,05,11,10.80
2016,04,23,05,12,10.80
2016,04,23,05,13,10.80
2016,04,23,05,14,10.70
2016,04,23,05,15,10.70
2016,04,23,05,16,10.70
2016,04,23,05,17,10.70
2016,04,23,05,18,10.70
2016,04,23,05,19,10.70
2016,04,23,05,20,10.70
2016,04,23,05,21,10.60
2016,04,23,05,22,10.60
2016,04,23,05,23,10.60
2016,04,23,05,24,10.60
2016,04,23,05,25,10.60
2016,04,23,05,26,10.60
2016,04,23,05,27,10.50
2016,04,23,05,28,10.50
2016,04,23,05,29,10.50
2016,04,23,05,30,10.50
2016,04,23,05,31,10.40
2016,04,23,05,32,10.40
2016,04,23,05,33,10.40
2016,04,23,05,34,10.40
2016,04,23,05,35,10.40
2016,04,23,05,36,10.40
2016,04,23,05,37,10.40
2016,04,23,05,38,10.40
2016,04,23,05,39,10.30
2016,04,23,05,40,10.30
2016,04,23,05,41,10.30
2016,04,23,05,42,10.20
2016,04,23,05,43,10.20
2016,04,23,05,44,10.20
2016,04,23,05,45,10.30
2016,04,23,05,46,10.30
2016,04,23,05,47,10.40
2016,04,23,05,48,10.40
2016,04,23,05,49,10.50
2016,04,23,05,50,10.50
2016,04,23,05,51,10.40
2016,04,23,05,52,10.40
2016,04,23,05,53,10.40
2016,04,23,05,54,10.30
2016,04,23,05,55,10.30
2016,04,23,05,56,10.30
2016,04,23,05,57,10.30
2016,04,23,05,58,10.30
2016,04,23,05,59,10.20
2016,04,23,06,00,10.30
2016,04,23,06,01,10.30
2016,04,23,06,02,10.30
2016,04,23,06,03,10.30
2016,04,23,06,04,10.30
2016,04,23,06,05,10.40
2016,04,23,06,06,10.40
2016,04,23,06,07,10.40
2016,04,23,06,08,10.50
2016,04,23,06,09,10.50
2016,04,23,06,10,10.60
2016,04,23,06,11,10.60
2016,04,23,06,12,10.60
2016,04,23,06,13,10.60
2016,04,23,06,14,10.60
2016,04,23,06,15,10.60
2016,04,23,06,16,10.50
2016,04,23,06,17,10.40
2016,04,23,06,18,10.30
2016,04,23,06,19,10.30
2016,04,23,06,20,10.20
2016,04,23,06,21,10.10
2016,04,23,06,22,10.10
2016,04,23,06,23,10.00
2016,04,23,06,24,9.90
2016,04,23,06,25,9.90
2016,04,23,06,26,9.90
2016,04,23,06,27,9.90
2016,04,23,06,28,9.80
2016,04,23,06,29,9.80
2016,04,23,06,30,9.80
2016,04,23,06,31,9.80
2016,04,23,06,32,9.80
2016,04,23,06,33,9.70
2016,04,23,06,34,9.70
2016,04,23,06,35,9.70
2016,04,23,06,36,9.70
2016,04,23,06,37,9.60
2016,04,23,06,38,9.60
2016,04,23,06,39,9.60
2016,04,23,06,40,9.60
2016,04,23,06,41,9.60
2016,04,23,06,42,9.60
2016,04,23,06,43,9.60
2016,04,23,06,44,9.60
2016,04,23,06,45,9.70
2016,04,23,06,46,9.70
2016,04,23,06,47,9.70
2016,04,23,06,48,9.70
2016,04,23,06,49,9.70
2016,04,23,06,50,9.70
2016,04,23,06,51,9.70
2016,04,23,06,52,9.70
2016,04,23,06,53,9.70
2016,04,23,06,54,9.60
2016,04,23,06,55,9.70
2016,04,23,06,56,9.70
2016,04,23,06,57,9.70
2016,04,23,06,58,9.70
2016,04,23,06,59,9.70
2016,04,23,07,00,9.80
2016,04,23,07,01,9.80
2016,04,23,07,02,9.80
2016,04,23,07,03,9.90
2016,04,23,07,04,9.90
2016,04,23,07,05,10.00
2016,04,23,07,06,10.00
2016,04,23,07,07,10.10
2016,04,23,07,08,10.20
2016,04,23,07,09,10.20
2016,04,23,07,10,10.30
2016,04,23,07,11,10.30
2016,04,23,07,12,10.40
2016,04,23,07,13,10.50
2016,04,23,07,14,10.60
2016,04,23,07,15,10.60
2016,04,23,07,16,10.70
2016,04,23,07,17,10.80
2016,04,23,07,18,10.90
2016,04,23,07,19,11.00
2016,04,23,07,20,11.10
2016,04,23,07,21,11.20
2016,04,23,07,22,11.30
2016,04,23,07,23,11.40
2016,04,23,07,24,11.50
2016,04,23,07,25,11.70
2016,04,23,07,26,11.80
2016,04,23,07,27,11.90
2016,04,23,07,28,12.00
2016,04,23,07,29,12.10
2016,04,23,07,30,12.20
2016,04,23,07,31,12.20
2016,04,23,07,32,12.30
2016,04,23,07,33,12.40
2016,04,23,07,34,12.50
2016,04,23,07,35,12.60
2016,04,23,07,36,12.70
2016,04,23,07,37,12.80
2016,04,23,07,38,12.90
2016,04,23,07,39,13.00
2016,04,23,07,40,13.10
2016,04,23,07,41,13.20
2016,04,23,07,42,13.30
2016,04,23,07,43,13.30
2016,04,23,07,44,13.40
2016,04,23,07,45,13.40
2016,04,23,07,46,13.40
2016,04,23,07,47,13.40
2016,04,23,07,48,13.40
2016,04,23,07,49,13.40
2016,04,23,07,50,13.40
2016,04,23,07,51,13.40
2016,04,23,07,52,13.40
2016,04,23,07,53,13.40
2016,04,23,07,54,13.30
2016,04,23,07,55,13.30
2016,04,23,07,56,13.30
2016,04,23,07,57,13.30
2016,04,23,07,58,13.20
2016,04,23,07,59,13.20
2016,04,23,08,00,13.20
2016,04,23,08,01,13.20
2016,04,23,08,02,13.20
2016,04,23,08,03,13.20
2016,04,23,08,04,13.20
2016,04,23,08,05,13.20
2016,04,23,08,06,13.20
2016,04,23,08,07,13.10
2016,04,23,08,08,13.10
2016,04,23,08,09,13.10
2016,04,23,08,10,13.10
2016,04,23,08,11,13.00
2016,04,23,08,12,13.00
2016,04,23,08,13,13.00
2016,04,23,08,14,13.00
2016,04,23,08,15,13.00
2016,04,23,08,16,13.10
2016,04,23,08,17,13.10
2016,04,23,08,18,13.20
2016,04,23,08,19,13.20
2016,04,23,08,20,13.30
2016,04,23,08,21,13.30
2016,04,23,08,22,13.30
2016,04,23,08,23,13.40
2016,04,23,08,24,13.20
2016,04,23,08,25,13.20
2016,04,23,08,26,13.20
2016,04,23,08,27,13.20
2016,04,23,08,28,13.20
2016,04,23,08,29,13.20
2016,04,23,08,30,13.30
2016,04,23,08,31,13.40
2016,04,23,08,32,13.40
2016,04,23,08,33,13.40
2016,04,23,08,34,13.30
2016,04,23,08,35,13.20
2016,04,23,08,36,13.30
2016,04,23,08,37,13.30
2016,04,23,08,38,13.40
2016,04,23,08,39,13.40
2016,04,23,08,40,13.50
2016,04,23,08,41,13.50
2016,04,23,08,42,13.60
2016,04,23,08,43,13.60
2016,04,23,08,44,13.70
2016,04,23,08,45,13.70
2016,04,23,08,46,13.70
2016,04,23,08,47,13.80
2016,04,23,08,48,13.70
2016,04,23,08,49,13.70
2016,04,23,08,50,13.70
2016,04,23,08,51,13.70
2016,04,23,08,52,13.70
2016,04,23,08,53,13.80
2016,04,23,08,54,13.80
2016,04,23,08,55,13.80
2016,04,23,08,56,13.80
2016,04,23,08,57,13.80
2016,04,23,08,58,13.70
2016,04,23,08,59,13.70
2016,04,23,09,00,13.80
2016,04,23,09,01,13.80
2016,04,23,09,02,13.90
2016,04,23,09,03,14.00
2016,04,23,09,04,14.10
2016,04,23,09,05,14.20
2016,04,23,09,06,14.30
2016,04,23,09,07,14.20
2016,04,23,09,08,14.10
2016,04,23,09,09,14.10
2016,04,23,09,10,14.10
2016,04,23,09,11,14.10
2016,04,23,09,12,14.10
2016,04,23,09,13,14.10
2016,04,23,09,14,14.10
2016,04,23,09,15,14.20
2016,04,23,09,16,14.10
2016,04,23,09,17,14.20
2016,04,23,09,18,14.30
2016,04,23,09,19,14.20
2016,04,23,09,20,14.20
2016,04,23,09,21,14.20
2016,04,23,09,22,14.30
2016,04,23,09,23,14.20
2016,04,23,09,24,14.20
2016,04,23,09,25,14.20
2016,04,23,09,26,14.20
2016,04,23,09,27,14.20
2016,04,23,09,28,14.10
2016,04,23,09,29,14.10
2016,04,23,09,30,14.10
2016,04,23,09,31,14.10
2016,04,23,09,32,14.10
2016,04,23,09,33,14.20
2016,04,23,09,34,14.10
2016,04,23,09,35,14.20
2016,04,23,09,36,14.20
2016,04,23,09,37,14.20
2016,04,23,09,38,14.30
2016,04,23,09,39,14.30
2016,04,23,09,40,14.20
2016,04,23,09,41,14.30
2016,04,23,09,42,14.30
2016,04,23,09,43,14.20
2016,04,23,09,44,14.20
2016,04,23,09,45,14.20
2016,04,23,09,46,14.20
2016,04,23,09,47,14.10
2016,04,23,09,48,14.20
2016,04,23,09,49,14.20
2016,04,23,09,50,14.20
2016,04,23,09,51,14.20
2016,04,23,09,52,14.20
2016,04,23,09,53,14.20
2016,04,23,09,54,14.10
2016,04,23,09,55,14.10
2016,04,23,09,56,14.20
2016,04,23,09,57,14.20
2016,04,23,09,58,14.20
2016,04,23,09,59,14.20
2016,04,23,10,00,14.20
2016,04,23,10,01,14.20
2016,04,23,10,02,14.20
2016,04,23,10,03,14.20
2016,04,23,10,04,14.20
2016,04,23,10,05,14.30
2016,04,23,10,06,14.30
2016,04,23,10,07,14.30
2016,04,23,10,08,14.30
2016,04,23,10,09,14.30
2016,04,23,10,10,14.40
2016,04,23,10,11,14.40
2016,04,23,10,12,14.30
2016,04,23,10,13,14.20
2016,04,23,10,14,14.20
2016,04,23,10,15,14.20
2016,04,23,10,16,14.20
2016,04,23,10,17,14.20
2016,04,23,10,18,14.30
2016,04,23,10,19,14.30
2016,04,23,10,20,14.20
2016,04,23,10,21,14.20
2016,04,23,10,22,14.20
2016,04,23,10,23,14.20
2016,04,23,10,24,14.20
2016,04,23,10,25,14.20
2016,04,23,10,26,14.20
2016,04,23,10,27,14.20
2016,04,23,10,28,14.20
2016,04,23,10,29,14.30
2016,04,23,10,30,14.40
2016,04,23,10,31,14.40
2016,04,23,10,32,14.50
2016,04,23,10,33,14.40
2016,04,23,10,34,14.40
2016,04,23,10,35,14.40
2016,04,23,10,36,14.40
2016,04,23,10,37,14.40
2016,04,23,10,38,14.50
2016,04,23,10,39,14.50
2016,04,23,10,40,14.60
2016,04,23,10,41,14.60
2016,04,23,10,42,14.70
2016,04,23,10,43,14.80
2016,04,23,10,44,14.90
2016,04,23,10,45,14.90
2016,04,23,10,46,15.00
2016,04,23,10,47,15.00
2016,04,23,10,48,15.00
2016,04,23,10,49,15.00
2016,04,23,10,50,14.90
2016,04,23,10,51,14.90
2016,04,23,10,52,15.00
2016,04,23,10,53,15.00
2016,04,23,10,54,15.00
2016,04,23,10,55,14.90
2016,04,23,10,56,14.90
2016,04,23,10,57,14.90
2016,04,23,10,58,15.00
2016,04,23,10,59,15.00
2016,04,23,11,00,15.00
2016,04,23,11,01,15.20
2016,04,23,11,02,15.30
2016,04,23,11,03,15.30
2016,04,23,11,04,15.30
2016,04,23,11,05,15.30
2016,04,23,11,06,15.30
2016,04,23,11,07,15.30
2016,04,23,11,08,15.40
2016,04,23,11,09,15.40
2016,04,23,11,10,15.40
2016,04,23,11,11,15.50
2016,04,23,11,12,15.50
2016,04,23,11,13,15.60
2016,04,23,11,14,15.60
2016,04,23,11,15,15.60
2016,04,23,11,16,15.60
2016,04,23,11,17,15.70
2016,04,23,11,18,15.70
2016,04,23,11,19,15.70
2016,04,23,11,20,15.60
2016,04,23,11,21,15.60
2016,04,23,11,22,15.50
2016,04,23,11,23,15.50
2016,04,23,11,24,15.40
2016,04,23,11,25,15.30
2016,04,23,11,26,15.20
2016,04,23,11,27,15.20
2016,04,23,11,28,15.20
2016,04,23,11,29,15.20
2016,04,23,11,30,15.20
2016,04,23,11,31,15.20
2016,04,23,11,32,15.30
2016,04,23,11,33,15.40
2016,04,23,11,34,15.50
2016,04,23,11,35,15.50
2016,04,23,11,36,15.50
2016,04,23,11,37,15.50
2016,04,23,11,38,15.60
2016,04,23,11,39,15.60
2016,04,23,11,40,15.60
2016,04,23,11,41,15.50
2016,04,23,11,42,15.50
2016,04,23,11,43,15.60
2016,04,23,11,44,15.60
2016,04,23,11,45,15.60
2016,04,23,11,46,15.60
2016,04,23,11,47,15.60
2016,04,23,11,48,15.60
2016,04,23,11,49,15.60
2016,04,23,11,50,15.60
2016,04,23,11,51,15.60
2016,04,23,11,52,15.60
2016,04,23,11,53,15.70
2016,04,23,11,54,15.60
2016,04,23,11,55,15.60
2016,04,23,11,56,15.60
2016,04,23,11,57,15.70
2016,04,23,11,58,15.70
2016,04,23,11,59,15.70
2016,04,23,12,00,15.70
2016,04,23,12,01,15.80
2016,04,23,12,02,15.80
2016,04,23,12,03,15.90
2016,04,23,12,04,15.90
2016,04,23,12,05,15.90
2016,04,23,12,06,15.90
2016,04,23,12,07,15.90
2016,04,23,12,08,15.90
2016,04,23,12,09,15.80
2016,04,23,12,10,15.70
2016,04,23,12,11,15.80
2016,04,23,12,12,15.80
2016,04,23,12,13,15.80
2016,04,23,12,14,15.90
2016,04,23,12,15,16.00
2016,04,23,12,16,16.10
2016,04,23,12,17,16.30
2016,04,23,12,18,16.30
2016,04,23,12,19,16.30
2016,04,23,12,20,16.30
2016,04,23,12,21,16.20
2016,04,23,12,22,16.20
2016,04,23,12,23,16.20
2016,04,23,12,24,16.20
2016,04,23,12,25,16.20
2016,04,23,12,26,16.30
2016,04,23,12,27,16.30
2016,04,23,12,28,16.40
2016,04,23,12,29,16.40
2016,04,23,12,30,16.50
2016,04,23,12,31,16.60
2016,04,23,12,32,16.60
2016,04,23,12,33,16.60
2016,04,23,12,34,16.50
2016,04,23,12,35,16.50
2016,04,23,12,36,16.50
2016,04,23,12,37,16.50
2016,04,23,12,38,16.40
2016,04,23,12,39,16.40
2016,04,23,12,40,16.30
2016,04,23,12,41,16.30
2016,04,23,12,42,16.30
2016,04,23,12,43,16.20
2016,04,23,12,44,16.20
2016,04,23,12,45,16.20
2016,04,23,12,46,16.20
2016,04,23,12,47,16.20
2016,04,23,12,48,16.20
2016,04,23,12,49,16.20
2016,04,23,12,50,16.20
2016,04,23,12,51,16.30
2016,04,23,12,52,16.40
2016,04,23,12,53,16.40
2016,04,23,12,54,16.50
2016,04,23,12,55,16.60
2016,04,23,12,56,16.60
2016,04,23,12,57,16.70
2016,04,23,12,58,16.70
2016,04,23,12,59,16.80
2016,04,23,13,00,16.80
2016,04,23,13,01,16.90
2016,04,23,13,02,17.00
2016,04,23,13,03,17.00
2016,04,23,13,04,17.00
2016,04,23,13,05,17.10
2016,04,23,13,06,17.20
2016,04,23,13,07,17.30
2016,04,23,13,08,17.30
2016,04,23,13,09,17.30
2016,04,23,13,10,17.40
2016,04,23,13,11,17.40
2016,04,23,13,12,17.50
2016,04,23,13,13,17.60
2016,04,23,13,14,17.60
2016,04,23,13,15,17.70
2016,04,23,13,16,17.60
2016,04,23,13,17,17.60
2016,04,23,13,18,17.60
2016,04,23,13,19,17.60
2016,04,23,13,20,17.60
2016,04,23,13,21,17.60
2016,04,23,13,22,17.50
2016,04,23,13,23,17.50
2016,04,23,13,24,17.60
2016,04,23,13,25,17.60
2016,04,23,13,26,17.60
2016,04,23,13,27,17.60
2016,04,23,13,28,17.60
2016,04,23,13,29,17.70
2016,04,23,13,30,17.80
2016,04,23,13,31,17.80
2016,04,23,13,32,17.70
2016,04,23,13,33,17.60
2016,04,23,13,34,17.60
2016,04,23,13,35,17.60
2016,04,23,13,36,17.60
2016,04,23,13,37,17.60
2016,04,23,13,38,17.70
2016,04,23,13,39,17.80
2016,04,23,13,40,17.80
2016,04,23,13,41,17.90
2016,04,23,13,42,17.90
2016,04,23,13,43,17.90
2016,04,23,13,44,17.80
2016,04,23,13,45,17.90
2016,04,23,13,46,17.90
2016,04,23,13,47,17.90
2016,04,23,13,48,17.90
2016,04,23,13,49,17.90
2016,04,23,13,50,17.80
2016,04,23,13,51,17.80
2016,04,23,13,52,17.80
2016,04,23,13,53,17.90
2016,04,23,13,54,17.90
2016,04,23,13,55,17.90
2016,04,23,13,56,17.90
2016,04,23,13,57,17.90
2016,04,23,13,58,18.00
2016,04,23,13,59,18.00
2016,04,23,14,00,18.00
2016,04,23,14,01,18.00
2016,04,23,14,02,17.80
2016,04,23,14,03,17.70
2016,04,23,14,04,17.70
2016,04,23,14,05,17.60
2016,04,23,14,06,17.50
2016,04,23,14,07,17.50
2016,04,23,14,08,17.50
2016,04,23,14,09,17.50
2016,04,23,14,10,17.60
2016,04,23,14,11,17.70
2016,04,23,14,12,17.60
2016,04,23,14,13,17.50
2016,04,23,14,14,17.60
2016,04,23,14,15,17.60
2016,04,23,14,16,17.70
2016,04,23,14,17,17.80
2016,04,23,14,18,17.80
2016,04,23,14,19,17.90
2016,04,23,14,20,17.90
2016,04,23,14,21,17.90
2016,04,23,14,22,18.00
2016,04,23,14,23,18.00
2016,04,23,14,24,17.80
2016,04,23,14,25,17.80
2016,04,23,14,26,17.70
2016,04,23,14,27,17.80
2016,04,23,14,28,17.70
2016,04,23,14,29,17.60
2016,04,23,14,30,17.40
2016,04,23,14,31,17.30
2016,04,23,14,32,17.20
2016,04,23,14,33,17.00
2016,04,23,14,34,16.90
2016,04,23,14,35,16.80
2016,04,23,14,36,16.90
2016,04,23,14,37,16.90
2016,04,23,14,38,16.90
2016,04,23,14,39,17.00
2016,04,23,14,40,17.10
2016,04,23,14,41,17.20
2016,04,23,14,42,17.20
2016,04,23,14,43,17.30
2016,04,23,14,44,17.20
2016,04,23,14,45,17.20
2016,04,23,14,46,17.10
2016,04,23,14,47,17.10
2016,04,23,14,48,17.00
2016,04,23,14,49,17.10
2016,04,23,14,50,17.10
2016,04,23,14,51,17.00
2016,04,23,14,52,16.90
2016,04,23,14,53,16.90
2016,04,23,14,54,16.90
2016,04,23,14,55,17.00
2016,04,23,14,56,16.90
2016,04,23,14,57,17.00
2016,04,23,14,58,17.10
2016,04,23,14,59,17.10
2016,04,23,15,00,17.10
2016,04,23,15,01,17.10
2016,04,23,15,02,17.00
2016,04,23,15,03,17.00
2016,04,23,15,04,17.10
2016,04,23,15,05,17.10
2016,04,23,15,06,17.10
2016,04,23,15,07,17.10
2016,04,23,15,08,17.10
2016,04,23,15,09,17.10
2016,04,23,15,10,17.20
2016,04,23,15,11,17.40
2016,04,23,15,12,17.50
2016,04,23,15,13,17.60
2016,04,23,15,14,17.50
2016,04,23,15,15,17.40
2016,04,23,15,16,17.50
2016,04,23,15,17,17.60
2016,04,23,15,18,17.60
2016,04,23,15,19,17.50
2016,04,23,15,20,17.40
2016,04,23,15,21,17.40
2016,04,23,15,22,17.40
2016,04,23,15,23,17.40
2016,04,23,15,24,17.30
2016,04,23,15,25,17.20
2016,04,23,15,26,17.20
2016,04,23,15,27,17.20
2016,04,23,15,28,17.20
2016,04,23,15,29,17.20
2016,04,23,15,30,17.10
2016,04,23,15,31,17.10
2016,04,23,15,32,17.10
2016,04,23,15,33,17.10
2016,04,23,15,34,17.10
2016,04,23,15,35,17.20
2016,04,23,15,36,17.10
2016,04,23,15,37,17.20
2016,04,23,15,38,17.20
2016,04,23,15,39,17.10
2016,04,23,15,40,17.10
2016,04,23,15,41,17.20
2016,04,23,15,42,17.20
2016,04,23,15,43,17.20
2016,04,23,15,44,17.20
2016,04,23,15,45,17.20
2016,04,23,15,46,17.30
2016,04,23,15,47,17.30
2016,04,23,15,48,17.30
2016,04,23,15,49,17.30
2016,04,23,15,50,17.30
2016,04,23,15,51,17.30
2016,04,23,15,52,17.20
2016,04,23,15,53,17.20
2016,04,23,15,54,17.20
2016,04,23,15,55,17.20
2016,04,23,15,56,17.20
2016,04,23,15,57,17.20
2016,04,23,15,58,17.20
2016,04,23,15,59,17.20
2016,04,23,16,00,17.20
2016,04,23,16,01,17.20
2016,04,23,16,02,17.20
2016,04,23,16,03,17.30
2016,04,23,16,04,17.20
2016,04,23,16,05,17.10
2016,04,23,16,06,17.10
2016,04,23,16,07,17.10
2016,04,23,16,08,17.10
2016,04,23,16,09,17.00
2016,04,23,16,10,17.00
2016,04,23,16,11,17.00
2016,04,23,16,12,17.10
2016,04,23,16,13,17.10
2016,04,23,16,14,17.20
2016,04,23,16,15,17.20
2016,04,23,16,16,17.30
2016,04,23,16,17,17.30
2016,04,23,16,18,17.30
2016,04,23,16,19,17.30
2016,04,23,16,20,17.30
2016,04,23,16,21,17.30
2016,04,23,16,22,17.20
2016,04,23,16,23,17.10
2016,04,23,16,24,17.10
2016,04,23,16,25,17.00
2016,04,23,16,26,16.90
2016,04,23,16,27,16.90
2016,04,23,16,28,16.80
2016,04,23,16,29,16.80
2016,04,23,16,30,16.80
2016,04,23,16,31,16.90
2016,04,23,16,32,16.90
2016,04,23,16,33,16.90
2016,04,23,16,34,16.90
2016,04,23,16,35,17.00
2016,04,23,16,36,16.90
2016,04,23,16,37,16.90
2016,04,23,16,38,16.90
2016,04,23,16,39,16.80
2016,04,23,16,40,16.80
2016,04,23,16,41,16.90
2016,04,23,16,42,16.90
2016,04,23,16,43,17.00
2016,04,23,16,44,17.00
2016,04,23,16,45,17.00
2016,04,23,16,46,17.00
2016,04,23,16,47,17.00
2016,04,23,16,48,17.00
2016,04,23,16,49,17.00
2016,04,23,16,50,17.00
2016,04,23,16,51,17.00
2016,04,23,16,52,17.10
2016,04,23,16,53,17.10
2016,04,23,16,54,17.10
2016,04,23,16,55,17.10
2016,04,23,16,56,17.10
2016,04,23,16,57,17.20
2016,04,23,16,58,17.20
2016,04,23,16,59,17.20
2016,04,23,17,00,17.20
2016,04,23,17,01,17.20
2016,04,23,17,02,17.10
2016,04,23,17,03,17.10
2016,04,23,17,04,17.10
2016,04,23,17,05,17.00
2016,04,23,17,06,16.90
2016,04,23,17,07,16.80
2016,04,23,17,08,16.70
2016,04,23,17,09,16.70
2016,04,23,17,10,16.60
2016,04,23,17,11,16.60
2016,04,23,17,12,16.50
2016,04,23,17,13,16.50
2016,04,23,17,14,16.50
2016,04,23,17,15,16.40
2016,04,23,17,16,16.30
2016,04,23,17,17,16.20
2016,04,23,17,18,16.20
2016,04,23,17,19,16.20
2016,04,23,17,20,16.10
2016,04,23,17,21,16.00